カタログに戻る

STARLINK-33945

運用中通信SSO
NORAD 64154·PAYLOAD·🇺🇸 United States

打ち上げ May 27, 2025 から Vandenberg Space Force Base

Loading…

次のパス (今後24時間)

TLE

最新Source: CelesTrak SupGP

元期: Sep 14, 2026, 22:31 UTC

1 64154C 25112J   26257.93868056  .00021000  00000+0  65214-3 0  2578
2 64154  97.2842 312.7552 0001502  85.7552 181.9304 15.33415872    15

AllMySatでSTARLINK-33945をリアルタイム追跡

Download on the App Store